This demonstration page uses our WeatherBlox Daily Observations layout. Learn more.

Left ArrowRight Arrow

Hourly Observations for April 23, 2021

Temp ( °F °C ) Dew Point ( °F °C ) Humidity (%) Winds ( mph kmh ) Pressure ( in mb ) Visibility ( mi km ) Precip ( " mm )
12:53 am 00:53 Mostly Clear 43 6.1 34 1.1 71 71 S 10 17 29.87 1012 10 16 0.00 0.00
1:53 am 01:53 Mostly Clear 42 5.6 36 2.2 79 79 S 12 19 29.86 1011 10 16 0.00 0.00
2:14 am 02:14 Mostly Cloudy 43 6.1 36 2.2 76 76 S 13 20 29.88 1012 10 16 0.00 0.00
2:53 am 02:53 Cloudy 43 6.1 37 2.8 80 80 S 13 20 29.83 1010 10 16 0.00 0.00
3:53 am 03:53 Cloudy 43 6.1 37 2.8 80 80 S 12 19 29.82 1010 10 16 0.00 0.00
4:53 am 04:53 Cloudy 43 6.1 38 3.3 82 82 S 9 15 29.83 1010 10 16 0.00 0.00
5:53 am 05:53 Cloudy 43 6.1 39 3.9 86 86 S 7 11 29.82 1010 10 16 0.00 0.00
6:39 am 06:39 Mostly Clear 42 5.6 38 3.3 85 85 S 7 11 29.85 1011 10 16 0.00 0.00
6:53 am 06:53 Partly Cloudy 42 5.6 39 3.9 89 89 S 7 11 29.82 1010 9 14 0.00 0.00
7:03 am 07:03 Mostly Cloudy 42 5.6 39 3.9 89 89 S 7 11 29.85 1011 9 14 0.00 0.00
7:15 am 07:15 Partly Cloudy 43 6.1 39 3.9 86 86 S 8 13 29.86 1011 9 14 0.00 0.00
7:53 am 07:53 Sunny 44 6.7 40 4.4 85 85 S 9 15 29.85 1011 9 14 0.00 0.00
8:20 am 08:20 Mostly Cloudy 45 7.2 41 5 86 86 S 7 11 29.88 1012 9 14 0.00 0.00
8:53 am 08:53 Cloudy 47 8.3 42 5.6 83 83 S 9 15 29.86 1011 10 16 0.00 0.00
9:53 am 09:53 Cloudy 50 10 43 6.1 77 77 SW 9 15 29.86 1011 10 16 0.00 0.00
10:53 am 10:53 Mostly Cloudy 52 11.1 43 6.1 72 72 SW 6 9 29.86 1011 10 16 0.00 0.00
11:13 am 11:13 Partly Cloudy 53 11.7 43 6.1 69 69 VRB 3 6 29.85 1011 10 16 0.00 0.00
11:53 am 11:53 Mostly Sunny 55 12.8 43 6.1 64 64 Calm 29.86 1011 10 16 0.00 0.00
12:53 pm 12:53 Sunny 59 15 44 6.7 58 58 Calm 29.85 1011 10 16 0.00 0.00
1:53 pm 13:53 Sunny 61 16.1 42 5.6 50 50 Calm 29.84 1010 10 16 0.00 0.00
2:53 pm 14:53 Sunny 62 16.7 42 5.6 48 48 VRB 5 7 29.83 1010 10 16 0.00 0.00
3:53 pm 15:53 Partly Cloudy 64 17.8 42 5.6 45 45 VRB 7 11 29.82 1010 10 16 0.00 0.00
4:53 pm 16:53 Cloudy 64 17.8 41 5 43 43 E 6 9 29.81 1010 10 16 0.00 0.00
5:53 pm 17:53 Partly Cloudy 63 17.2 40 4.4 43 43 ESE 9 15 29.81 1010 10 16 0.00 0.00
6:53 pm 18:53 Sunny 63 17.2 40 4.4 43 43 SSE 6 9 29.82 1010 10 16 0.00 0.00
7:53 pm 19:53 Mostly Sunny 58 14.4 42 5.6 56 56 ESE 5 7 29.82 1010 10 16 0.00 0.00
8:53 pm 20:53 Clear 53 11.7 33 0.6 47 47 NE 8 13 29.85 1011 10 16 0.00 0.00
9:53 pm 21:53 Clear 52 11.1 34 1.1 50 50 NNE 16 26 29.91 1013 10 16 0.00 0.00
10:53 pm 22:53 Clear 50 10 37 2.8 61 61 NNE 14 22 29.94 1014 10 16 0.00 0.00
11:53 pm 23:53 Clear 45 7.2 37 2.8 74 74 NNE 12 19 29.96 1015 10 16 0.00 0.00

Powered by AerisWeather